When you browse on this site, cookies collect data to enhance your experience and personalize the content and advertising you see.
Visit our Privacy Policy to learn more. By continuing to use the site, you agree to this use of cookies and data.
  • In Schweiz
  • Länderverzeichnis
  • Für 7 Tage
  • Wassertemperatur
  • Wetterkarte
  • Widgets
  • user-avatar
    Anmelden

    Stündliche Wetter Igls

    Heute, 20 Oktober, Sonntag

    Zeit Temperatur Niederschläge Wind Luftdruck Luftfeuchtigkeit
    00:00 +11°C° 0 mm 3 m/S 682 mmHg 91%
    01:00 +12°C° 0 mm 4 m/S 682 mmHg 92%
    02:00 +12°C° 0 mm 4 m/S 682 mmHg 92%
    03:00 +12°C° 0 mm 4 m/S 682 mmHg 92%
    04:00 +12°C° 0 mm 4 m/S 682 mmHg 91%
    05:00 +12°C° 0 mm 4 m/S 682 mmHg 91%
    06:00 +12°C° 0 mm 4 m/S 682 mmHg 91%
    07:00 +12°C° 0 mm 4 m/S 683 mmHg 92%
    08:00 +13°C° 0 mm 4 m/S 683 mmHg 86%
    09:00 +15°C° 0 mm 4 m/S 683 mmHg 81%
    10:00 +17°C° 0 mm 4 m/S 683 mmHg 75%
    11:00 +18°C° 0 mm 4 m/S 683 mmHg 71%
    12:00 +18°C° 0 mm 4 m/S 683 mmHg 68%
    13:00 +19°C° 0 mm 4 m/S 683 mmHg 64%
    14:00 +18°C° 0 mm 4 m/S 683 mmHg 67%
    15:00 +17°C° 0 mm 4 m/S 683 mmHg 70%
    16:00 +17°C° 0 mm 3 m/S 682 mmHg 74%
    17:00 +15°C° 0 mm 4 m/S 683 mmHg 78%
    18:00 +14°C° 0 mm 4 m/S 683 mmHg 82%
    19:00 +13°C° 0 mm 4 m/S 683 mmHg 85%
    20:00 +13°C° 0 mm 4 m/S 683 mmHg 85%
    21:00 +13°C° 0 mm 4 m/S 684 mmHg 86%
    22:00 +13°C° 0 mm 4 m/S 684 mmHg 86%
    23:00 +13°C° 0 mm 4 m/S 684 mmHg 86%

    Morgen, 21 Oktober, Montag

    Zeit Temperatur Niederschläge Wind Luftdruck Luftfeuchtigkeit
    00:00 +12°C° 0 mm 4 m/S 684 mmHg 86%
    01:00 +12°C° 0 mm 4 m/S 685 mmHg 86%
    02:00 +12°C° 0 mm 4 m/S 684 mmHg 86%
    03:00 +12°C° 0 mm 4 m/S 684 mmHg 87%
    04:00 +12°C° 0 mm 3 m/S 684 mmHg 87%
    05:00 +12°C° 0 mm 3 m/S 685 mmHg 87%
    06:00 +12°C° 0 mm 3 m/S 685 mmHg 86%
    07:00 +12°C° 0 mm 3 m/S 686 mmHg 86%
    08:00 +14°C° 0 mm 3 m/S 686 mmHg 82%
    09:00 +16°C° 0 mm 3 m/S 687 mmHg 77%
    10:00 +18°C° 0 mm 2 m/S 687 mmHg 73%
    11:00 +18°C° 0 mm 2 m/S 688 mmHg 72%
    12:00 +18°C° 0 mm 2 m/S 688 mmHg 71%
    13:00 +19°C° 0 mm 2 m/S 688 mmHg 70%
    14:00 +18°C° 0 mm 2 m/S 688 mmHg 73%
    15:00 +18°C° 0 mm 2 m/S 688 mmHg 77%
    16:00 +18°C° 0 mm 2 m/S 688 mmHg 80%
    17:00 +16°C° 0 mm 2 m/S 688 mmHg 85%
    18:00 +15°C° 0 mm 2 m/S 688 mmHg 89%
    19:00 +14°C° 0 mm 2 m/S 688 mmHg 94%
    20:00 +14°C° 0 mm 2 m/S 688 mmHg 94%
    21:00 +13°C° 0 mm 2 m/S 688 mmHg 93%
    22:00 +13°C° 0 mm 2 m/S 688 mmHg 93%
    23:00 +13°C° 0 mm 2 m/S 689 mmHg 93%

    übermorgen, 22 Oktober, Dienstag

    Zeit Temperatur Niederschläge Wind Luftdruck Luftfeuchtigkeit
    00:00 +13°C° 0 mm 2 m/S 689 mmHg 93%
    01:00 +13°C° 0 mm 2 m/S 689 mmHg 94%
    02:00 +13°C° 0 mm 1 m/S 689 mmHg 94%
    03:00 +12°C° 0 mm 1 m/S 689 mmHg 94%
    04:00 +12°C° 0 mm 1 m/S 689 mmHg 94%
    05:00 +12°C° 0 mm 1 m/S 689 mmHg 94%
    06:00 +12°C° 0 mm 1 m/S 689 mmHg 93%
    07:00 +11°C° 0 mm 1 m/S 689 mmHg 92%
    08:00 +13°C° 0 mm 1 m/S 689 mmHg 85%
    09:00 +15°C° 0 mm 1 m/S 689 mmHg 78%
    10:00 +18°C° 0 mm 1 m/S 690 mmHg 71%
    11:00 +19°C° 0 mm 1 m/S 690 mmHg 67%
    12:00 +21°C° 0 mm 1 m/S 690 mmHg 62%
    13:00 +22°C° 0 mm 1 m/S 690 mmHg 58%
    14:00 +21°C° 0 mm 1 m/S 689 mmHg 64%
    15:00 +20°C° 0 mm 1 m/S 689 mmHg 70%
    16:00 +19°C° 0 mm 1 m/S 689 mmHg 76%
    17:00 +18°C° 0 mm 1 m/S 688 mmHg 79%
    18:00 +15°C° 0 mm 2 m/S 688 mmHg 81%
    19:00 +14°C° 0 mm 2 m/S 688 mmHg 84%
    20:00 +14°C° 0 mm 2 m/S 688 mmHg 82%
    21:00 +13°C° 0 mm 2 m/S 688 mmHg 80%
    22:00 +13°C° 0 mm 2 m/S 688 mmHg 79%
    23:00 +12°C° 0 mm 3 m/S 687 mmHg 77%

    23 Oktober, Mittwoch

    Zeit Temperatur Niederschläge Wind Luftdruck Luftfeuchtigkeit
    00:00 +12°C° 0 mm 3 m/S 687 mmHg 76%
    01:00 +12°C° 0 mm 3 m/S 687 mmHg 75%
    02:00 +11°C° 0 mm 3 m/S 687 mmHg 73%
    03:00 +11°C° 0 mm 3 m/S 686 mmHg 72%
    04:00 +11°C° 0 mm 3 m/S 686 mmHg 71%
    05:00 +11°C° 0 mm 3 m/S 686 mmHg 69%
    06:00 +11°C° 0 mm 3 m/S 686 mmHg 67%
    07:00 +11°C° 0 mm 3 m/S 685 mmHg 65%
    08:00 +13°C° 0 mm 3 m/S 686 mmHg 59%
    09:00 +17°C° 0 mm 3 m/S 686 mmHg 52%
    10:00 +20°C° 0 mm 3 m/S 686 mmHg 46%
    11:00 +20°C° 0 mm 3 m/S 686 mmHg 43%
    12:00 +21°C° 0 mm 3 m/S 686 mmHg 40%
    13:00 +22°C° 0 mm 3 m/S 686 mmHg 37%
    14:00 +21°C° 0 mm 3 m/S 685 mmHg 43%
    15:00 +20°C° 0 mm 3 m/S 685 mmHg 48%
    16:00 +19°C° 0 mm 3 m/S 684 mmHg 53%
    17:00 +17°C° 0 mm 3 m/S 684 mmHg 57%
    18:00 +14°C° 0 mm 3 m/S 684 mmHg 62%
    19:00 +12°C° 0 mm 3 m/S 683 mmHg 66%
    20:00 +12°C° 0 mm 3 m/S 683 mmHg 67%
    21:00 +12°C° 0 mm 4 m/S 683 mmHg 68%
    22:00 +12°C° 0 mm 4 m/S 683 mmHg 70%
    23:00 +12°C° 0 mm 4 m/S 683 mmHg 70%

    24 Oktober, Donnerstag

    Zeit Temperatur Niederschläge Wind Luftdruck Luftfeuchtigkeit
    00:00 +11°C° 0 mm 4 m/S 683 mmHg 70%
    01:00 +11°C° 0 mm 4 m/S 683 mmHg 70%
    02:00 +11°C° 0 mm 4 m/S 683 mmHg 69%
    03:00 +11°C° 0 mm 3 m/S 683 mmHg 68%
    04:00 +11°C° 0 mm 3 m/S 683 mmHg 67%
    05:00 +11°C° 0 mm 3 m/S 683 mmHg 65%
    06:00 +11°C° 0 mm 3 m/S 683 mmHg 64%
    07:00 +11°C° 0 mm 3 m/S 683 mmHg 63%
    08:00 +15°C° 0 mm 2 m/S 683 mmHg 58%
    09:00 +17°C° 0 mm 2 m/S 683 mmHg 53%
    10:00 +19°C° 0 mm 2 m/S 684 mmHg 48%
    11:00 +20°C° 0 mm 2 m/S 684 mmHg 46%
    12:00 +21°C° 0 mm 2 m/S 684 mmHg 44%
    13:00 +23°C° 0 mm 2 m/S 684 mmHg 43%
    14:00 +21°C° 0 mm 2 m/S 683 mmHg 49%
    15:00 +21°C° 0 mm 1 m/S 683 mmHg 55%
    16:00 +20°C° 0 mm 1 m/S 683 mmHg 62%
    17:00 +18°C° 0 mm 1 m/S 683 mmHg 68%
    18:00 +15°C° 0 mm 1 m/S 683 mmHg 75%
    19:00 +13°C° 0 mm 2 m/S 683 mmHg 82%
    20:00 +13°C° 0 mm 2 m/S 683 mmHg 83%
    21:00 +13°C° 0 mm 2 m/S 683 mmHg 84%
    22:00 +13°C° 0 mm 2 m/S 683 mmHg 85%
    23:00 +12°C° 0 mm 1 m/S 683 mmHg 86%

    25 Oktober, Freitag

    Zeit Temperatur Niederschläge Wind Luftdruck Luftfeuchtigkeit
    00:00 +12°C° 0 mm 1 m/S 683 mmHg 88%
    01:00 +11°C° 0 mm 1 m/S 683 mmHg 89%
    02:00 +11°C° 0 mm 1 m/S 683 mmHg 90%
    03:00 +10°C° 0 mm 0 m/S 683 mmHg 91%
    04:00 +9°C° 0 mm 0 m/S 683 mmHg 92%
    05:00 +9°C° 0 mm 0 m/S 683 mmHg 92%
    06:00 +9°C° 0 mm 0 m/S 683 mmHg 93%
    07:00 +9°C° 0 mm 0 m/S 683 mmHg 93%
    08:00 +11°C° 0 mm 0 m/S 684 mmHg 87%
    09:00 +13°C° 0 mm 0 m/S 685 mmHg 80%
    10:00 +15°C° 0 mm 0 m/S 685 mmHg 74%
    11:00 +16°C° 0 mm 1 m/S 685 mmHg 72%
    12:00 +18°C° 0 mm 1 m/S 685 mmHg 70%
    13:00 +19°C° 0 mm 1 m/S 685 mmHg 68%
    14:00 +18°C° 0 mm 1 m/S 685 mmHg 71%
    15:00 +18°C° 0 mm 1 m/S 685 mmHg 74%
    16:00 +18°C° 0 mm 1 m/S 685 mmHg 77%
    17:00 +15°C° 0 mm 1 m/S 684 mmHg 82%
    18:00 +13°C° 0 mm 1 m/S 684 mmHg 87%
    19:00 +12°C° 0 mm 1 m/S 684 mmHg 92%
    20:00 +12°C° 0 mm 1 m/S 684 mmHg 90%
    21:00 +12°C° 0 mm 1 m/S 684 mmHg 89%
    22:00 +12°C° 0 mm 1 m/S 685 mmHg 88%
    23:00 +12°C° 0 mm 1 m/S 684 mmHg 87%
    Mehr zeigen